Weather Roundup
Issued by NWS Chicago, IL

Home | Current Version | Previous Version | Text Only | Print | Product List | Glossary On
Versions: 1 2 3 4 5 6 7 8 9 10 11 12 13 14 15 16 17 18 19 20 21 22 23 24 25 26 27 28 29 30 31 32 33 34 35 36 37 38 39 40 41 42 43 44 45 46 47 48 49 50
000
NZUS59 KLOT 242209
HRRLOT

CHICAGO AREA WEATHER ROUNDUP
NATIONAL WEATHER SERVICE CHICAGO/ROMEOVILLE IL
400 PM CST SAT FEB 24 2018

NOTE: "FAIR" INDICATES FEW OR NO CLOUDS BELOW 12,000 FEET WITH NO
SIGNIFICANT WEATHER AND/OR OBSTRUCTIONS TO VISIBILITY.

* THESE STATIONS ARE NOT UNDER NWS QUALITY CONTROL. THEY ALSO MAY NOT
  REPORT WEATHER SUCH AS PRECIPITATION OR FOG.

ILZ005-006-012>014-019>023-242300-
NORTHEAST ILLINOIS

CITY           SKY/WX    TMP DP  RH WIND       PRES   REMARKS
OHARE          LGT RAIN  41  35  79 E13       29.87F
MIDWAY         LGT RAIN  41  38  89 E10       29.88F FOG
AURORA         LGT RAIN  40  38  93 E13       29.84F FOG
LANSING*       CLOUDY    43  41  92 E10       29.88F
JOLIET*        DRIZZLE   43  42  97 E8        29.86F
WAUKEGAN       CLOUDY    37  34  89 E8        29.90F FOG
DUPAGE AIRPORT LGT RAIN  39  37  92 E9        29.86F FOG
WHEELING       CLOUDY    40  35  83 E9        29.90F
KANKAKEE*      LGT RAIN  45  44  97 E10       29.86F
MORRIS*        CLOUDY    42  40  95 E12       29.83F FOG
LEWIS AIRPORT* DRIZZLE   41  39  94 E9        29.86F
NORTHERLY ISL    N/A     36  33  89 NE6         N/A
$$

WIZ051-052-058>065-066-070>072-242300-
SOUTHEAST WISCONSIN

CITY           SKY/WX    TMP DP  RH WIND       PRES   REMARKS
MILWAUKEE      CLOUDY    37  33  85 E12       29.93F
KENOSHA*       CLOUDY    37  32  82 E13       29.91F
RACINE*        CLOUDY    37  33  85 E9        29.93F
BURLINGTON     CLOUDY    35  31  85 E12G17    29.89F WCI  27
WAUKESHA       CLOUDY    34  28  80 E13G20    29.92F WCI  25
WEST BEND      CLOUDY    34  32  93 E9        29.92S WCI  26
$$

INZ001>003-010>013-019-020-242300-
NORTHWEST INDIANA

CITY           SKY/WX    TMP DP  RH WIND       PRES   REMARKS
GARY*          CLOUDY    45  39  81 SE12      29.89F
MICHIGAN CITY* NOT AVBL
RENSSELAER*    NOT AVBL
VALPARAISO     CLOUDY    45  40  82 E15       29.90F
$$

LMZ740>746-242300-
SOUTHERN LAKE MICHIGAN

STATION/POSITION TIME  SKY/WX   TEMP WIND        PRES    VSBY
                                AIR  DIR/SP/G
                 (UTC)          (F)  (DEG/KT/KT) (MB)    (MI)
HARRISON CRIB    2140            37  100/ 14/ 15   N/A
BURNHAM HARBOR   2200            36   60/  6/ 11   N/A
CALUMET HARBOR   2148            38   90/  8/ 10 1011.7F
BURNS HARBOR     2140            42  110/  9/ 16 1012.9F
MICHIGAN CITY    2140            41  100/ 13/ 16   N/A
$$

ABBREVIATIONS USED IN REMARKS
   TC - TEMPERATURE IN CELSIUS
  WCI - WIND CHILL INDEX
   HX - HEAT INDEX
  VSB - VISIBILITY
$$



USA.gov is the U.S. government's official web portal to all federal, state and local government web resources and services.